Showing default

YUNYAO-1 44, 63345

Orbit data source: Space-Track

YUNYAO-1 44, 63345 is a payload satellite owned by Yunyao yuhang (CN) in SSO that was launched on Fri, 21 Mar 2025 UTC via a GUSHENXING 1 launch vehicle from the Jiuquan Satellite Launch Center, China (JSC). Payload-class satellites include a variety of spacecraft equipped with specific instruments for various scientific and technological missions. These include communications satellites like Starlink; space stations such as the ISS; scientific satellites like the Hubble; Earth observation satellites from companies like Planet Labs, Umbra, and HawkEye 360; GPS; miniature CubeSats for education and research; and military/defense satellites.

Loading next visibility...
Identifier
63345, 2025-059B
Orbit
SSO
Country
Flag of CNCN / PRC
Related business
Manufacturer
Changguang WJ
Mission
Operational Commercial Meteo Radio Occ.
Bus & Motor
YY-1, Unknown motor
Mass
~50 kg wet, ~50 kg dry
Launch date (UTC)
2025-03-21 (11 months ago)
Launch vehicle
GUSHENXING 1
Launch site
Jiuquan Satellite Launch Center, China (JSC)
Object type
Payload
Rocket body
Debris
Shape & HBR
Box + 1 Pan, 0.5 m
Radar Cross Section
5.339 m², Medium (>0.1 m² and < 1m²)

Expand to show TLE details & history
Last TLE update: 5 hours ago

TLE from 5 hours ago
0 YUNYAO-1 44
1 63345U 25059B   26037.18002679  .00008291  00000-0  51207-3 0  9991
2 63345  97.6035 219.3151 0016237 245.7849 114.1684 15.10033561 48522
Epoch: 2026-02-06T04:19Z
TLE epoch observation values (Epoch: 2026-02-06T04:19:14.314Z)
Latitude
0.00001°
Longitude
18.18385°
Altitude
543.781 km
Speed
7.588 km/s
True Right ascension
14h 37m 15s
True Declination
0° 00' 00"
Sunlit
Object was in daylight at epoch
Visualization orbit readout
Latitude
Unknown
Longitude
Unknown
Altitude
Unknown
Speed
Unknown
Apparent Right ascension
Unknown
Apparent Declination
Unknown
Sunlit
N/A
Visualization observer readout
Local Sidereal Time
11:52:35
Azimuth
Unknown
Elevation
Unknown
Doppler factor
Unknown
Orbital elements
Apogee altitude
544.307 km
Perigee altitude
521.863 km
Semi-major axis
6,911.222 km
Eccentricity
0.00162
Inclination
97.6035°
RAAN
219.3151°
Arg. of periapsis
245.7849°
True anomaly
114.33801°
Mean anomaly
114.1684°
Eccentric anomaly
114.25322°
Mean motion
3.77756 °/min
Orbital period
95.3 mins
BSTAR
0.00051207
Loading maneuver chart data...
Computing Atmospheric mass density...
Loading historical data...
Loading historical data...
Loading historical data...
Loading historical data...
Loading historical data...
Loading historical data...
Loading historical data...
Other satellites on launch #59 in the year 2025 (2025-03-21 UTC)

Documentation

Showing up to 5 results
|